Weather History for KMKL - March, 2013

Change the Weather History Date:

Saturday, March 23, 2013

  Actual Average Record
Temperature  
Mean Temperature 50 °F 53 °F  
Max Temperature 55 °F 65 °F 82 °F (1987)
Min Temperature 44 °F 41 °F 20 °F (1968)
Degree Days  
Heating Degree Days 15 12  
Month to date heating degree days 462 355  
Since 1 July heating degree days 3165 3239  
Cooling Degree Days 0 0  
Month to date cooling degree days 0 0  
Year to date cooling degree days 4 1  
Moisture  
Dew Point 44 °F    
Average Humidity 80    
Maximum Humidity 93    
Minimum Humidity 66    
Precipitation  
Precipitation 0.35 in 0.17 in 1.32 in (1958)
Month to date precipitation 3.31 3.44  
Year to date precipitation 15.25 11.68  
Snow  
Snow 0.00 in 0.00 in T in (1974)
Month to date snowfall T 0.3  
Since 1 July snowfall 1.4 4.5  
Snow Depth 0.00 in    
Sea Level Pressure  
Sea Level Pressure 29.86 in    
Wind  
Wind Speed 7 mph (ENE)    
Max Wind Speed 15 mph    
Max Gust Speed 20 mph    
Visibility 9 miles    
Events Rain    
T = Trace of Precipitation, MM = Missing Value Source: NWS Daily Summary

Daily Weather History Graph

Daily Weather History Graph

Search for Another Location

Airport or City:

Trip Planner

Search our weather history database for the weather conditions in past years. The results will help you decide how hot, cold, wet, or windy it might be!

Date:

Astronomy

Mar. 23, 2013 Rise Set
Actual Time 6:54 AM CDT 7:10 PM CDT
Civil Twilight 6:29 AM CDT 7:35 PM CDT
Nautical Twilight 5:59 AM CDT 8:05 PM CDT
Astronomical Twilight 5:29 AM CDT 8:35 PM CDT
Moon 3:43 PM CDT (3/23) 4:23 AM CDT (3/23)
Length of Visible Light 13h 06m
Length of Day
12h 15m
Waxing Gibbous, 85% of the Moon is Illuminated
Mar 23
Waxing Gibbous
Mar 27
Full
Apr 2
Last Quarter
Apr 10
New
Apr 18
First Quarter

Hourly Weather History & Observations

Time (CDT) Temp. Windchill Dew Point Humidity Pressure Visibility Wind Dir Wind Speed Gust Speed Precip Events Conditions
12:53 AM 45.0 °F 42.6 °F 42.1 °F 90% 29.94 in 10.0 mi East 4.6 mph - N/A   Overcast
1:22 AM 46.4 °F 45.2 °F 41.0 °F 81% 29.94 in 10.0 mi ENE 3.5 mph - N/A   Overcast
2:53 AM 46.0 °F - 41.0 °F 83% 29.93 in 10.0 mi Calm Calm - N/A   Overcast
3:46 AM 46.4 °F - 39.2 °F 76% 29.90 in 10.0 mi Calm Calm - N/A   Overcast
3:53 AM 46.0 °F 43.1 °F 39.9 °F 79% 29.89 in 10.0 mi ESE 5.8 mph - N/A   Overcast
4:53 AM 46.0 °F 44.8 °F 39.9 °F 79% 29.89 in 10.0 mi East 3.5 mph - N/A   Overcast
5:38 AM 46.4 °F 44.3 °F 41.0 °F 81% 29.91 in 10.0 mi NE 4.6 mph - N/A   Overcast
5:53 AM 46.0 °F 44.8 °F 41.0 °F 83% 29.92 in 10.0 mi NNE 3.5 mph - N/A   Overcast
6:53 AM 46.0 °F 43.1 °F 41.0 °F 83% 29.93 in 10.0 mi ENE 5.8 mph - N/A   Overcast
7:07 AM 46.4 °F 43.5 °F 41.0 °F 81% 29.92 in 10.0 mi ENE 5.8 mph - N/A   Overcast
7:50 AM 46.4 °F 44.3 °F 42.8 °F 87% 29.94 in 10.0 mi NE 4.6 mph - N/A   Overcast
7:53 AM 46.0 °F 43.1 °F 42.1 °F 86% 29.94 in 10.0 mi NE 5.8 mph - N/A   Overcast
8:53 AM 46.0 °F 43.1 °F 42.1 °F 86% 29.94 in 10.0 mi East 5.8 mph - N/A   Overcast
9:53 AM 46.9 °F - 42.1 °F 83% 29.94 in 10.0 mi East 8.1 mph - N/A   Overcast
10:53 AM 50.0 °F - 43.0 °F 77% 29.93 in 10.0 mi East 10.4 mph - N/A   Overcast
11:53 AM 53.1 °F - 44.1 °F 71% 29.92 in 10.0 mi East 10.4 mph - N/A   Overcast
12:35 PM 53.6 °F - 44.6 °F 72% 29.90 in 10.0 mi ENE 9.2 mph - N/A   Overcast
12:53 PM 55.0 °F - 45.0 °F 69% 29.89 in 10.0 mi ENE 11.5 mph - N/A   Overcast
1:41 PM 55.4 °F - 44.6 °F 67% 29.88 in 10.0 mi East 8.1 mph - N/A   Overcast
1:53 PM 55.0 °F - 45.0 °F 69% 29.87 in 10.0 mi East 8.1 mph - N/A   Overcast
2:53 PM 54.0 °F - 44.1 °F 69% 29.85 in 10.0 mi East 8.1 mph - N/A   Overcast
3:53 PM 53.1 °F - 46.0 °F 77% 29.82 in 10.0 mi East 4.6 mph - 0.02 in   Overcast
4:53 PM 52.0 °F - 48.0 °F 86% 29.78 in 10.0 mi ENE 9.2 mph 18.4 mph 0.01 in   Overcast
5:53 PM 52.0 °F - 46.0 °F 80% 29.76 in 10.0 mi East 9.2 mph - N/A   Overcast
6:53 PM 52.0 °F - 46.0 °F 80% 29.75 in 10.0 mi East 9.2 mph - 0.00 in Rain Light Rain
7:53 PM 51.1 °F - 46.0 °F 83% 29.73 in 10.0 mi East 9.2 mph - 0.00 in   Overcast
8:00 PM 51.8 °F - 46.4 °F 82% 29.73 in 10.0 mi East 10.4 mph - N/A   Overcast
9:53 PM 50.0 °F - 46.9 °F 89% 29.75 in 9.0 mi ENE 3.5 mph - 0.01 in Rain Light Rain
10:15 PM 50.0 °F - 46.4 °F 87% 29.73 in 8.0 mi ENE 5.8 mph - 0.00 in Rain Light Rain
10:53 PM 48.9 °F - 46.9 °F 93% 29.71 in 6.0 mi ENE 5.8 mph - 0.04 in Rain Light Rain
11:18 PM 48.2 °F - 46.4 °F 93% 29.73 in 4.0 mi NNE 5.8 mph - 0.04 in Rain Rain
11:53 PM 48.9 °F - 46.9 °F 93% 29.70 in 3.0 mi ENE 6.9 mph - 0.14 in Rain Rain